sat.trackr.live / text

‹ back to catalog

STARLINK-37320

NORAD 68711 · 2026-081N

PAYLOAD ACTIVE UNKNOWN

§ Identity

Operator
Country
US
Launch date
2026-04-14
Launch site
AFETR
Launch vehicle
Mass (kg)
RCS (m²)

Purposes: comms

External: N2YO · Heavens-Above · Gunter

§ Orbital elements

Epoch: 2026-05-25T03:30:26.188416Z

Period
93.06 min
Inclination
53.1597°
Eccentricity
0.0001253
Mean motion
15.47330122 rev/d
Perigee alt
423.7 km
Apogee alt
425.4 km
Semi-major
6,802.7 km
B*
-8.8369e-3
RAAN
39.3189°
Arg perigee
81.5396°
Mean anomaly
278.5754°
Rev number
644

§ Raw data

STARLINK-373201 68711U 26081N   26145.14613644 -.00434362  00000+0 -88369-2 0  99962 68711  53.1597  39.3189 0001253  81.5396 278.5754 15.47330122  6441

JSON: /api/v1/satellites/68711 · /tle

For live sub-satellite position, see the globe view (requires WebGL).

§ Visibility from observer

Set your observer location to see the next 7 days of passes ≥ 10°. The values pass through the URL so the page stays shareable.

No JS? Fill the form by hand. The geolocation button needs JavaScript.